THORAD AGENA D DEB, 42552

Orbit data source: Space-Track

THORAD AGENA D DEB, 42552 is space debris in SSO originally from a launch on Wed, 08 Apr 1970 UTC launched from the Air Force Western Test Range (AFWTR). Debris objects in space refer to the collection of defunct objects orbiting the Earth. Examples of debris include non-operational satellites, rocket bodies, and fragments generated from explosions, collisions, or faulty payload assembly.

Loading next visibility...
Identifier
42552, 1970-025TJ
Orbit
SSO
Country
Flag of USUS
Related business
Manufacturer
Unknown
Mission
Spacecraft
Bus & Motor
Unknown
Mass
Unknown
Launch date (UTC)
1970-04-08 (56 years ago)
Launch vehicle
Unknown
Launch site
Air Force Western Test Range (AFWTR)
Object type
Payload
Rocket body
Debris
Shape & HBR
Unknown shape, 0.1 m
Radar Cross Section
Small (<0.1 m²)

Expand to show TLE details & history
Last TLE update: 2 days ago

TLE from 2 days ago
0 THORAD AGENA D DEB
1 42552U 70025TJ  26254.74719601  .00000869  00000-0  14306-2 0  9995
2 42552  99.3904 185.3624 0177049  55.3511 306.4170 13.43933146625417
Epoch: 2026-09-11T17:55Z
TLE epoch observation values (Epoch: 2026-09-11T17:55:57.735Z)
Latitude
0.00003°
Longitude
-74.39428°
Altitude
1,020.435 km
Speed
7.379 km/s
True Right ascension
12h 21m 26s
True Declination
0° 00' 00"
Sunlit
Object was in daylight at epoch
Visualization orbit readout
Latitude
Unknown
Longitude
Unknown
Altitude
Unknown
Speed
Unknown
Apparent Right ascension
Unknown
Apparent Declination
Unknown
Sunlit
N/A
Visualization observer readout
Local Sidereal Time
11:33:30
Azimuth
Unknown
Elevation
Unknown
Doppler factor
Unknown
Orbital elements
Apogee altitude
1,224.214 km
Perigee altitude
959.699 km
Semi-major axis
7,470.093 km
Eccentricity
0.0177
Inclination
99.3904°
RAAN
185.3624°
Arg. of periapsis
55.3511°
True anomaly
304.76287°
Mean anomaly
306.417°
Eccentric anomaly
305.5921°
Mean motion
3.36166 °/min
Orbital period
107.09 mins
BSTAR
0.0014306

Documentation

Showing up to 5 results
|